UTC calendar date,Angular Size (deg),Planetocentric sub-spacecraft Longitude (deg),Planetocentric sub-spacecraft Latitude (deg),Planetocentric Subsolar Longitude (deg),Planetocentric Subsolar Latitude (deg),Planetographic Sub-Spacecraft Longitude (deg),Planetographic Sub-Spacecraft  Latitude (deg),Planetographic Solar Longitude (deg),Planetographic Solar Latitude (deg),Sub-Point Radius (km),Observer Distance (km),Phase Angle (deg)
2023-03-01 00:53:19.000000 UTC,16.54910017,-170.6772492,2.75448451,102.1396566,2.37030195,170.6772492,3.14918048,257.8603434,2.71011408,71480.15151,425281.0411,87.04700733
2023-03-01 01:03:19.000000 UTC,16.9628155,-176.792515,3.29552695,96.09490451,2.37031694,176.792515,3.76736541,263.9050955,2.71013122,71475.04722,413256.4295,86.94933003
2023-03-01 01:13:19.000000 UTC,17.40291169,177.0885254,3.86496538,90.05015237,2.37033194,182.9114746,4.417772,269.9498476,2.71014836,71468.69523,401096.2266,86.84703059
2023-03-01 01:23:19.000000 UTC,17.87213291,170.9655111,4.46548063,84.00540023,2.37034693,189.034489,5.10338406,275.9945998,2.71016549,71460.91161,388794.9512,86.73973226
2023-03-01 01:33:19.000000 UTC,18.37362295,164.8380366,5.10012196,77.96064809,2.37036192,195.1619634,5.82758484,282.0393519,2.71018263,71451.48002,376346.8213,86.62702304
2023-03-01 01:43:19.000000 UTC,18.91099802,158.7056384,5.77238677,71.91589595,2.37037692,201.2943616,6.59424184,288.0841041,2.71019977,71440.14472,363745.8057,86.50844606
2023-03-01 01:53:19.000000 UTC,19.48844234,152.567769,6.48631795,65.87114381,2.37039191,207.432231,7.40780972,294.1288562,2.7102169,71426.60134,350985.5503,86.3834786
2023-03-01 02:03:19.000000 UTC,20.11083179,146.423773,7.24660672,59.82639167,2.3704069,213.576227,8.27343651,300.1736083,2.71023404,71410.48568,338059.2189,86.25151703
2023-03-01 02:13:19.000000 UTC,20.78388607,140.2728708,8.05871648,53.78163952,2.3704219,219.7271293,9.19709009,306.2183605,2.71025118,71391.35946,324959.4197,86.1118719
2023-03-01 02:23:19.000000 UTC,21.51435878,134.114135,8.92904864,47.73688737,2.37043689,225.885865,10.18572689,312.2631126,2.71026831,71368.69187,311678.2011,85.96376073
2023-03-01 02:33:19.000000 UTC,22.31028148,127.9464543,9.8651605,41.69213523,2.37045188,232.0535457,11.24751229,318.3078648,2.71028545,71341.83554,298207.0511,85.80629472
2023-03-01 02:43:19.000000 UTC,23.18128136,121.768483,10.87604809,35.64738308,2.37046687,238.231517,12.39210358,324.3526169,2.71030258,71309.99492,284536.8899,85.63846119
2023-03-01 02:53:19.000000 UTC,24.13899938,115.5785711,11.97251587,29.60263093,2.37048186,244.4214289,13.63101555,330.3973691,2.71031972,71272.18429,270658.0673,85.45910273
2023-03-01 03:03:19.000000 UTC,25.19764699,109.3746691,13.1676665,23.55787878,2.37049685,250.6253309,14.97809806,336.4421212,2.71033685,71227.17164,256560.3791,85.26689373
2023-03-01 03:13:19.000000 UTC,26.37475774,103.1541925,14.47755858,17.51312663,2.37051185,256.8458075,16.45016768,342.4868734,2.71035398,71173.4027,242233.1199,85.06031465
2023-03-01 03:23:19.000000 UTC,27.69221754,96.91382683,15.92210374,11.46837448,2.37052684,263.0861732,18.06785434,348.5316255,2.71037112,71108.89705,227665.1975,84.83762601
2023-03-01 03:33:19.000000 UTC,29.17770027,90.64923935,17.52630989,5.42362232,2.37054183,269.3507607,19.85675147,354.5763777,2.71038825,71031.10498,212845.3495,84.59684574
2023-03-01 03:43:19.000000 UTC,30.86670547,84.35463786,19.3220344,-0.62112983,2.37055682,275.6453621,21.84900123,0.62112983,2.71040538,70936.7084,197762.5268,84.33573877
2023-03-01 03:53:19.000000 UTC,32.80550889,78.02207398,21.35050247,-6.66588199,2.3705718,281.977926,24.08551165,6.66588199,2.71042252,70821.34285,182406.5516,84.05183617
2023-03-01 04:03:19.000000 UTC,35.05552998,71.6402951,23.66599603,-12.71063414,2.37058679,288.3597049,26.61910438,12.71063414,2.71043965,70679.21016,166769.2338,83.74252042
2023-03-01 04:13:19.000000 UTC,37.69995374,65.1927586,26.34136691,-18.7553863,2.37060178,294.8072414,29.51904779,18.7553863,2.71045678,70502.54684,150846.2545,83.4052502
2023-03-01 04:23:19.000000 UTC,40.85403385,58.65398577,29.47643985,-24.80013846,2.37061677,301.3460142,32.87766588,24.80013846,2.71047391,70280.92714,134640.3627,83.03807612
2023-03-01 04:33:19.000000 UTC,44.68156661,51.98235313,33.21103712,-30.84489062,2.37063176,308.0176469,36.8200435,30.84489062,2.71049104,70000.45892,118166.8423,82.64075922
2023-03-01 04:43:19.000000 UTC,49.42195457,45.10442208,37.74534562,-36.88964278,2.37064675,314.8955779,41.51822559,36.88964278,2.71050817,69643.2215,101462.9666,82.21713927
2023-03-01 04:53:19.000000 UTC,55.43570025,37.87628935,43.37137772,-42.93439495,2.37066174,322.1237107,47.21138144,42.93439495,2.7105253,69188.23078,84604.51537,81.78008454
2023-03-01 05:03:19.000000 UTC,63.28152918,29.96969294,50.51808295,-48.97914711,2.37067672,330.0303071,54.23156088,48.97914711,2.71054243,68617.9951,67734.79644,81.3616691
2023-03-01 05:13:19.000000 UTC,73.84239557,20.43048629,59.7958876,-55.02389927,2.37069171,339.5695137,63.02245687,55.02389927,2.71055956,67942.07888,51115.46659,81.03333838
2023-03-01 05:23:19.000000 UTC,88.49273427,4.86307397,71.88444903,-61.06865144,2.3707067,355.136926,74.03521899,61.06865144,2.71057669,67263.44251,35214.32479,80.94263096
2023-03-01 05:33:19.000000 UTC,109.0892299,-71.22127687,83.21348671,-67.1134036,2.37072168,71.22127687,84.05894078,67.1134036,2.71059382,66912.67695,20855.86423,81.36887823
2023-03-01 05:43:19.000000 UTC,136.4160119,-149.7384531,66.72017471,-73.15815577,2.37073667,149.7384531,69.38184481,73.15815577,2.71061095,67519.28478,9483.84674,82.77269984
2023-03-01 05:53:19.000000 UTC,157.484882,-165.795352,40.89047868,-79.20290794,2.37075165,165.795352,44.7193972,79.20290794,2.71062808,69389.44319,3512.52088,85.67752371
2023-03-01 06:03:19.000000 UTC,136.7542662,-175.8594157,14.45701856,-85.24766011,2.37076664,175.8594157,16.42712152,85.24766011,2.7106452,71174.28094,5732.590175,89.82535484
2023-03-01 06:13:19.000000 UTC,109.5296493,175.5411056,-7.19839984,-91.29241228,2.37078162,184.4588945,-8.21857575,91.29241228,2.71066233,71411.55909,16118.4231,93.52392533
2023-03-01 06:23:19.000000 UTC,88.92742223,167.4494649,-22.95393981,-97.33716445,2.37079661,192.5505351,-25.84225812,97.33716445,2.71067946,70724.04229,31368.29405,95.87713014
2023-03-01 06:33:19.000000 UTC,74.22285015,159.5466619,-34.42100653,-103.3819166,2.37081159,200.4533381,-38.08331167,103.3819166,2.71069658,69906.57872,48640.41397,97.24159313
2023-03-01 06:43:19.000000 UTC,63.60055956,151.691163,-43.08487126,-109.4266688,2.37082658,208.308837,-46.92507385,109.4266688,2.71071371,69211.4577,66533.47909,98.0460467
2023-03-01 06:53:19.000000 UTC,55.70071611,143.8028444,-49.87464943,-115.471421,2.37084156,216.1971556,-53.60885269,115.471421,2.71073084,68668.16876,84446.3278,98.53733122
2023-03-01 07:03:19.000000 UTC,49.64299674,135.8252564,-55.35409895,-121.5161732,2.37085654,224.1747436,-58.85610305,121.5161732,2.71074796,68252.98638,102126.5395,98.8458732
2023-03-01 07:13:19.000000 UTC,44.86761561,127.7106191,-59.87773972,-127.5609253,2.37087153,232.2893809,-63.09855433,127.5609253,2.71076509,67936.61227,119472.0366,99.04256153
2023-03-01 07:23:19.000000 UTC,41.01229271,119.4125997,-63.67824673,-133.6056775,2.37088651,240.5874004,-66.60677887,133.6056775,2.71078221,67694.67079,136447.7708,99.16785348
2023-03-01 07:33:19.000000 UTC,37.83600104,110.8821017,-66.91408071,-139.6504297,2.37090149,249.1178983,-69.55782561,139.6504297,2.71079933,67508.69856,153049.4112,99.24596823
2023-03-01 07:43:19.000000 UTC,35.17365114,102.0643701,-69.69629998,-145.6951819,2.37091647,257.9356299,-72.07170017,145.6951819,2.71081646,67365.07816,169286.731,99.29202605
2023-03-01 07:53:19.000000 UTC,32.90900609,92.89686447,-72.10428179,-151.739934,2.37093145,267.1031355,-74.23187574,151.739934,2.71083358,67253.80319,185175.688,99.31581104
2023-03-01 08:03:19.000000 UTC,30.95814364,83.30797261,-74.1952887,-157.7846862,2.37094644,276.6920274,-76.09730627,157.7846862,2.7108507,67167.48069,200734.5417,99.32384959
2023-03-01 08:13:19.000000 UTC,29.25909172,73.21720406,-76.01047868,-163.8294384,2.37096142,286.7827959,-77.70972419,163.8294384,2.71086783,67100.59859,215981.93,99.32060866
2023-03-01 08:23:19.000000 UTC,27.76515791,62.53821661,-77.57881321,-169.8741906,2.3709764,297.4617834,-79.09824052,169.8741906,2.71088495,67049.00392,230935.9296,99.30921326
2023-03-01 08:33:19.000000 UTC,26.44052577,51.18689643,-78.91976378,-175.9189428,2.37099138,308.8131036,-80.28241759,175.9189428,2.71090207,67009.53402,245613.6225,99.29189083
2023-03-01 08:43:19.000000 UTC,25.25727794,39.09731727,-80.04547246,178.0363051,2.37100636,320.9026827,-81.27459109,181.9636949,2.71091919,66979.75515,260030.9264,99.27025447
2023-03-01 08:53:19.000000 UTC,24.19333964,26.24747673,-80.96292719,171.9915529,2.37102134,333.7525233,-82.08204388,188.0084471,2.71093631,66957.77579,274202.5622,99.24548837
2023-03-01 09:03:19.000000 UTC,23.2310292,12.69204299,-81.67660944,165.9468007,2.37103632,347.307957,-82.70949528,194.0531993,2.71095343,66942.11216,288142.0913,99.21847188
2023-03-01 09:13:19.000000 UTC,22.35601796,-1.41014547,-82.19175448,159.9020485,2.37105129,1.41014547,-83.16206632,200.0979515,2.71097055,66931.59019,301861.9861,99.18986433
2023-03-01 09:23:19.000000 UTC,21.55657128,-15.79503424,-82.51771108,153.8572963,2.37106627,15.79503424,-83.44829463,206.1427037,2.71098767,66925.27339,315373.7138,99.16016407
2023-03-01 09:33:19.000000 UTC,20.82298629,-30.13461544,-82.67019684,147.8125441,2.37108125,30.13461544,-83.58216073,212.1874559,2.71100479,66922.40926,328687.8235,99.12975015
2023-03-01 09:43:19.000000 UTC,20.14716959,-44.10999543,-82.67128602,141.767792,2.37109623,44.10999543,-83.58311684,218.2322081,2.71102191,66922.38901,341814.0296,99.09891232
2023-03-01 09:53:19.000000 UTC,19.52231591,-57.47962293,-82.54709292,135.7230398,2.37111121,57.47962293,-83.4740904,224.2769602,2.71103903,66924.717,354761.2914,99.06787279
2023-03-01 10:03:19.000000 UTC,18.94266088,-70.1102606,-82.32441557,129.6782876,2.37112618,70.1102606,-83.27857065,230.3217124,2.71105615,66928.98738,367537.8845,99.03680227
2023-03-01 10:13:19.000000 UTC,18.40328851,-81.96767159,-82.02787028,123.6335354,2.37114116,81.96767159,-83.0181178,236.3664646,2.71107327,66934.86606,380151.4669,99.00583189
2023-03-01 10:23:19.000000 UTC,17.89998,-93.08614942,-81.67829255,117.5887832,2.37115614,93.08614942,-82.71097438,242.4112168,2.71109038,66942.07671,392609.1372,98.97506217
2023-03-01 10:33:19.000000 UTC,17.42909377,-103.5366861,-81.29232947,111.544031,2.37117111,103.5366861,-82.37171467,248.455969,2.7111075,66950.38974,404917.4882,98.94456982
2023-03-01 10:43:19.000000 UTC,16.98746948,-113.4034761,-80.88277091,105.4992788,2.37118609,113.4034761,-82.01153747,254.5007212,2.71112462,66959.61359,417082.6531,98.91441292
2023-03-01 10:53:19.000000 UTC,16.57235062,-122.7699581,-80.45919024,99.45452664,2.37120106,122.7699581,-81.63882807,260.5454734,2.71114173,66969.58792,429110.3484,98.88463495